Terug naar catalogus

NOAA 16 DEB

ActiefPO
NORAD 41427·DEBRIS·🇺🇸 United States

Gelanceerd Sep 21, 2000 vanaf Vandenberg Space Force Base

Loading…

Volgende Passages (komende 24 uur)

TLE

VersSource: Space-Track

Epoch: Sep 14, 2026, 19:45 UTC

1 41427U 00055LG  26257.82356052  .00011336  00000-0  30044-2 0  9998
2 41427  98.9219  27.2944 0022806 229.2626 130.6586 14.48738264544743

Volg NOAA 16 DEB in realtime met AllMySat

Download on the App Store